Regional Weather Roundup
Issued by NWS

Home | Current Version | Previous Version | Graphics & Text | Print | Product List | Glossary On
Versions: 1 2 3 4 5 6 7 8 9 10 11 12 13 14 15 16 17 18 19 20 21 22 23 24 25 26 27 28 29 30 31 32 33 34 35 36 37 38 39 40 41 42 43 44 45 46 47 48 49 50
080
ASUS43 KBIS 281202
RWRND

NORTH DAKOTA REGIONAL WEATHER ROUNDUP
NATIONAL WEATHER SERVICE BISMARCK ND
700 AM CDT TUE MAR 28 2017

NOTE: "FAIR" INDICATES FEW OR NO CLOUDS BELOW 12,000 FEET WITH NO
SIGNIFICANT WEATHER AND/OR OBSTRUCTIONS TO VISIBILITY.


NDZ001>003-009>011-017-281300-
NORTHWEST NORTH DAKOTA

CITY           SKY/WX    TMP DP  RH WIND       PRES   REMARKS
WILLISTON      CLOUDY    37  35  92 E8        30.04R
6HR MIN TEMP:  37; 6HR MAX TEMP:  40; 6HR PCP: TRACE;

MINOT          CLOUDY    34  33  96 E12       30.08S FOG
$$

NDZ018>021-031>035-040>046-281300-
SOUTHWEST NORTH DAKOTA

CITY           SKY/WX    TMP DP  RH WIND       PRES   REMARKS
BISMARCK       FAIR      34  31  88 E10       30.07R
6HR MIN TEMP:  28; 6HR MAX TEMP:  41;

DICKINSON      FAIR      29  28  96 E5        30.00R
GARRISON         N/A     33  33 100 E10       30.07R
6HR MIN TEMP:  33; 6HR MAX TEMP:  36;

HETTINGER ARPT CLOUDY    30  27  88 CALM      30.02R
$$

NDZ004>008-012>016-024-026-027-054-281300-
NORTHEAST NORTH DAKOTA

CITY           SKY/WX    TMP DP  RH WIND       PRES   REMARKS
GRAND FORKS    CLOUDY    33  32  96 N9        30.13R
GRND FRKS AFB  CLOUDY    33  32  99 N7        30.14R
DEVILS LAKE    CLOUDY    33  30  88 NE7       30.12S
$$

NDZ022-023-025-028>030-036>039-047>053-281300-
SOUTHEAST NORTH DAKOTA

CITY           SKY/WX    TMP DP  RH WIND       PRES   REMARKS
FARGO          FOG       32  32 100 NW6       30.13R VSB 1/4
6HR MIN TEMP:  32; 6HR MAX TEMP:  37;

JAMESTOWN      FOG       31  31 100 N5        30.11R VSB 1/4
$$





USA.gov is the U.S. government's official web portal to all federal, state and local government web resources and services.